This is the latest recevied weather packets stored in our database for station/object K1WJY. If no packets are shown the sender has not sent any weather packets the latest 10 day(s).
| Time | Temp. | Humidity | Pressure | Rain* | Wind** | Luminosity | Snow |
|---|---|---|---|---|---|---|---|
| 1777854255 | 6.11° C | 99% | 1004.9 hPa | 0 mm | - | 0 W/m² | - |
| 1777853953 | 6.11° C | 99% | 1004.9 hPa | 0 mm | - | 0 W/m² | - |
| 1777853650 | 6.11° C | 99% | 1005.1 hPa | 0 mm | - | 0 W/m² | - |
| 1777853346 | 6.11° C | 99% | 1004.9 hPa | 0 mm | - | 0 W/m² | - |
| 1777853044 | 6.11° C | 99% | 1004.7 hPa | 0 mm | - | 0 W/m² | - |
| 1777852741 | 6.11° C | 99% | 1004.6 hPa | 0 mm | - | 0 W/m² | - |
| 1777852439 | 6.11° C | 99% | 1004.6 hPa | 0 mm | - | 0 W/m² | - |
| 1777852136 | 6.11° C | 99% | 1004.5 hPa | 0 mm | - | 0 W/m² | - |
| 1777851834 | 6.11° C | 99% | 1004.3 hPa | 0 mm | - | 0 W/m² | - |
| 1777851531 | 6.67° C | 99% | 1004.2 hPa | 0 mm | - | 1 W/m² | - |
| 1777851227 | 6.67° C | 99% | 1004.3 hPa | 0 mm | - | 4 W/m² | - |
| 1777850924 | 6.67° C | 99% | 1004 hPa | 0 mm | - | 7 W/m² | - |
| 1777850621 | 6.67° C | 99% | 1004.2 hPa | 0 mm | - | 10 W/m² | - |
| 1777850319 | 6.67° C | 99% | 1004.1 hPa | 0 mm | - | 14 W/m² | - |
| 1777850016 | 6.67° C | 99% | 1004 hPa | 0 mm | - | 19 W/m² | - |
| 1777849711 | 6.67° C | 99% | 1003.8 hPa | 0 mm | - | 22 W/m² | - |
| 1777849409 | 6.67° C | 99% | 1003.8 hPa | 0 mm | - | 25 W/m² | - |
| 1777849107 | 6.67° C | 99% | 1003.7 hPa | 0 mm | - | 27 W/m² | - |
| 1777848802 | 6.67° C | 99% | 1004 hPa | 0 mm | - | 29 W/m² | - |
| 1777848499 | 6.67° C | 99% | 1003.9 hPa | 0 mm | - | 34 W/m² | - |
| 1777848196 | 6.67° C | 99% | 1003.5 hPa | 0 mm | - | 41 W/m² | - |
| 1777847894 | 6.67° C | 99% | 1003.7 hPa | 0 mm | - | 45 W/m² | - |
| 1777847591 | 6.11° C | 99% | 1003.6 hPa | 0 mm | - | 47 W/m² | - |
| 1777847287 | 6.11° C | 99% | 1003.5 hPa | 0 mm | - | 52 W/m² | - |
| 1777846986 | 6.11° C | 99% | 1003.5 hPa | 0 mm | - | 64 W/m² | - |
* Rain latest hour (hover to see other rain measurements)
** Current wind speed in m/s (hover to see current wind gust speed)